Location: Boiro
(42.6475°N, 8.8834°W)
Time: 20:45:58
(UTC+01:00)

LilacSat-2 - Visible Passes

Search period start: 19 January 2022 00:00
Search period end: 29 January 2022 00:00
Orbit: 510 x 532 km, 97.5° (Epoch: 19 January)

Date Brightness Start Highest point End Pass type
(mag) Time Alt. Az. Time Alt. Az. Time Alt. Az.
19 Jan ? 07:09:21 10° NNE 07:13:00 47° E 07:16:36 10° S visible
19 Jan ? 19:25:30 10° SSW 19:28:33 22° W 19:31:37 10° NW visible
20 Jan ? 06:56:27 10° NNE 06:59:51 32° E 07:03:13 10° SSE visible
20 Jan ? 19:11:56 10° SSW 19:15:23 31° W 19:18:50 10° NNW visible
21 Jan ? 06:43:39 10° NE 06:46:40 22° E 06:49:39 10° SSE visible
21 Jan ? 08:17:41 10° NNW 08:20:46 24° WNW 08:23:50 10° SW visible
22 Jan ? 06:31:04 10° NE 06:33:27 16° E 06:35:49 10° SE visible
22 Jan ? 08:04:19 10° N 08:07:44 34° WNW 08:11:08 10° SW visible
23 Jan ? 06:19:02 10° ENE 06:20:12 11° E 06:21:23 10° ESE visible
23 Jan ? 07:51:02 10° N 07:54:40 49° WNW 07:58:17 10° SSW visible
24 Jan ? 07:37:49 10° N 07:41:35 74° WNW 07:45:17 10° SSW visible
24 Jan ? 19:56:37 10° W 19:57:22 10° W 19:58:05 10° W visible
25 Jan ? 07:24:42 10° NNE 07:28:27 75° ESE 07:32:11 10° S visible
25 Jan ? 19:41:52 10° SW 19:44:07 15° W 19:46:21 10° NW visible
26 Jan ? 07:11:39 10° NNE 07:15:18 50° E 07:18:56 10° S visible
26 Jan ? 19:27:57 10° SW 19:30:53 21° W 19:33:49 10° NW visible
27 Jan ? 06:58:41 10° NNE 07:02:08 34° E 07:05:33 10° SSE visible
27 Jan ? 19:14:19 10° SSW 19:17:40 29° W 19:21:02 10° NW visible
28 Jan ? 06:45:51 10° NE 06:48:55 24° E 06:51:58 10° SSE visible
28 Jan ? 08:20:00 10° NNW 08:23:00 23° WNW 08:25:59 10° WSW visible
